FW9209 Weather Reports


Display with metric or nautical units.
time (UTC)temp
F
wind
direction
speed
MPH
gust
MPH
rain 1hr
in
rain 24hr
in
rain mn
in
humidity
%
barometer
mb
20260507201601 48 0 1.0 7.0 0.00 0.00 0.00 42 1009.6
20260507200054 48 304 0.0 4.0 0.00 0.00 0.00 42 1009.7
20260507194555 47 0 0.0 5.0 0.00 0.00 0.00 43 1009.8
20260507193100 48 240 1.0 6.0 0.00 0.00 0.00 46 1010.0
20260507191558 48 326 0.0 10.0 0.00 0.00 0.00 46 1010.0
20260507190056 48 297 1.0 10.0 0.00 0.00 0.00 44 1009.9
20260507184557 48 324 2.0 8.0 0.00 0.00 0.00 44 1009.9
20260507183056 47 258 1.0 8.0 0.00 0.00 0.00 46 1010.2
20260507181553 47 0 1.0 6.0 0.00 0.00 0.00 49 1010.2
20260507180055 46 264 0.0 3.0 0.00 0.00 0.00 50 1010.4
20260507174605 46 0 0.0 4.0 0.00 0.00 0.00 49 1010.4
20260507173102 46 153 3.0 7.0 0.00 0.00 0.00 49 1010.5
20260507171609 46 201 0.0 6.0 0.00 0.00 0.00 52 1010.7
20260507170059 45 249 0.0 7.0 0.00 0.00 0.00 53 1011.0
20260507164612 45 84 0.0 11.0 0.00 0.00 0.00 51 1011.1
20260507163059 46 0 0.0 8.0 0.00 0.00 0.00 49 1011.1
20260507161606 45 269 0.0 7.0 0.00 0.00 0.00 54 1011.4
20260507160101 44 250 0.0 9.0 0.00 0.00 0.00 53 1011.5
20260507154556 43 0 0.0 6.0 0.00 0.00 0.00 59 1011.6
20260507153055 44 0 1.0 10.0 0.00 0.00 0.00 57 1011.6
20260507151556 43 307 1.0 8.0 0.00 0.00 0.00 59 1011.7
20260507150106 42 276 4.0 10.0 0.00 0.00 0.00 61 1011.8
20260507144555 41 0 2.0 7.0 0.00 0.00 0.00 63 1011.9
20260507143100 40 254 2.0 5.0 0.00 0.00 0.00 65 1011.9
20260507141558 39 0 0.0 3.0 0.00 0.00 0.00 69 1012.1
20260507140054 39 264 0.0 7.0 0.00 0.00 0.00 71 1012.2
20260507134556 39 239 1.0 6.0 0.00 0.00 0.00 69 1012.3
20260507133057 39 210 0.0 4.0 0.00 0.00 0.00 69 1012.4
20260507131612 38 218 2.0 7.0 0.00 0.00 0.00 68 1012.4
20260507130100 38 0 0.0 4.0 0.00 0.00 0.00 69 1012.4
20260507124555 38 236 0.0 4.0 0.00 0.00 0.00 69 1012.4
20260507123051 37 202 0.0 3.0 0.00 0.00 0.00 71 1012.4
20260507121601 37 252 0.0 1.0 0.00 0.00 0.00 72 1012.3
20260507120057 37 0 0.0 4.0 0.00 0.00 0.00 72 1012.2
20260507114600 36 0 0.0 1.0 0.00 0.00 0.00 72 1012.2
20260507113054 36 0 0.0 1.0 0.00 0.00 0.00 74 1012.1
20260507111554 36 0 0.0 1.0 0.00 0.00 0.00 73 1011.9
20260507110114 36 0 0.0 1.0 0.00 0.00 0.00 72 1011.9
20260507104554 35 0 0.0 1.0 0.00 0.00 0.00 72 1011.9
20260507103057 35 0 0.0 1.0 0.00 0.00 0.00 72 1011.9
20260507101559 35 0 0.0 2.0 0.00 0.00 0.00 72 1011.9
20260507100055 35 0 0.0 0.0 0.00 0.00 0.00 72 1011.9
20260507094609 35 0 0.0 1.0 0.00 0.00 0.00 72 1011.9
20260507093100 35 0 0.0 1.0 0.00 0.00 0.00 72 1012.1
20260507091631 35 0 0.0 1.0 0.00 0.00 0.00 71 1012.0
20260507090106 35 0 0.0 0.0 0.00 0.00 0.00 71 1012.1
20260507084557 35 0 0.0 0.0 0.00 0.00 0.00 71 1012.1
20260507083053 35 0 0.0 0.0 0.00 0.00 0.00 72 1012.1
20260507081552 34 0 0.0 1.0 0.00 0.00 0.00 74 1012.2
20260507080055 34 0 0.0 0.0 0.00 0.00 0.00 78 1012.2
20260507074553 34 0 0.0 0.0 0.00 0.00 0.00 77 1012.3
20260507073054 34 0 0.0 0.0 0.00 0.00 0.00 76 1012.3
20260507071557 34 0 0.0 0.0 0.00 0.00 0.00 76 1012.4
20260507070104 34 0 0.0 0.0 0.00 0.00 0.00 75 1012.6
20260507064556 34 0 0.0 0.0 0.00 0.00 0.00 74 1012.7
20260507063057 34 0 0.0 0.0 0.00 0.00 0.00 72 1012.7
20260507061556 35 0 0.0 0.0 0.00 0.00 0.00 70 1012.9
20260507060104 36 0 0.0 0.0 0.00 0.00 0.00 70 1013.0
20260507054556 36 0 0.0 1.0 0.00 0.00 0.00 69 1013.1
20260507053100 37 0 0.0 1.0 0.00 0.00 0.00 69 1013.2
20260507051556 37 0 0.0 1.0 0.00 0.00 0.00 68 1013.3
20260507050103 37 0 0.0 3.0 0.00 0.00 0.00 67 1013.5
20260507044552 37 226 0.0 4.0 0.00 0.00 0.00 66 1013.5
20260507043100 38 265 0.0 4.0 0.00 0.00 0.00 65 1013.6
20260507041556 38 0 0.0 6.0 0.00 0.00 0.00 66 1013.6
20260507040101 38 0 1.0 5.0 0.00 0.00 0.00 65 1013.8
20260507034601 38 252 0.0 3.0 0.00 0.00 0.00 66 1013.7
20260507033054 38 0 0.0 3.0 0.00 0.00 0.00 65 1013.8
20260507031555 38 0 0.0 5.0 0.00 0.00 0.00 64 1013.7
20260507030056 38 0 0.0 2.0 0.00 0.00 0.00 63 1013.9
20260507024600 39 0 0.0 2.0 0.00 0.00 0.00 64 1013.9
20260507023056 39 0 0.0 2.0 0.00 0.00 0.00 63 1013.8
20260507021600 39 0 0.0 0.0 0.00 0.00 0.00 63 1013.7
20260507020059 40 0 0.0 5.0 0.00 0.00 0.00 60 1013.6
20260507014600 40 0 0.0 2.0 0.00 0.00 0.00 61 1013.5
20260507013057 40 0 0.0 4.0 0.00 0.00 0.00 59 1013.4
20260507011609 41 0 0.0 7.0 0.00 0.00 0.00 59 1013.4
20260507010116 41 266 0.0 6.0 0.00 0.00 0.00 58 1013.3
20260507004600 41 262 0.0 4.0 0.00 0.00 0.00 56 1013.2
20260507003108 41 0 0.0 3.0 0.00 0.00 0.00 56 1013.3
20260507001601 42 0 0.0 6.0 0.00 0.00 0.00 56 1013.1
20260507000101 42 250 0.0 5.0 0.00 0.00 0.00 56 1013.1
20260506234614 42 239 0.0 6.0 0.00 0.00 0.00 55 1013.1
20260506233102 42 303 2.0 9.0 0.00 0.00 0.00 54 1013.1
20260506231601 43 313 0.0 6.0 0.00 0.00 0.00 54 1013.1
20260506230059 43 229 0.0 4.0 0.00 0.00 0.00 53 1013.1
20260506224554 43 257 1.0 10.0 0.00 0.00 0.00 54 1013.0
20260506223100 43 261 0.0 7.0 0.00 0.00 0.00 51 1012.9
20260506221555 44 297 0.0 9.0 0.00 0.00 0.00 53 1012.8
20260506220057 45 300 1.0 5.0 0.00 0.00 0.00 49 1012.7
20260506214601 45 320 2.0 7.0 0.00 0.00 0.00 49 1012.6
20260506213056 45 299 1.0 15.0 0.00 0.00 0.00 51 1012.6
20260506211554 45 243 2.0 7.0 0.00 0.00 0.00 50 1012.5
20260506210057 45 300 1.0 10.0 0.00 0.00 0.00 50 1012.5
20260506204606 45 0 3.0 10.0 0.00 0.00 0.00 47 1012.4
20260506203053 46 221 3.0 12.0 0.00 0.00 0.00 49 1012.4